#timestamp,LO_Frequency,Hit,StdDev 
1562050815.1,286047001.2,N
1562050835.9,286046998.4,N
1562050855.7,286046998.7,N
1562050875.5,286046996.5,N
1562050895.4,286046999.4,N
1562050915.2,286046999.2,N
1562050935.1,286046999.6,N
1562050936.0,286046999.6,N
1562050955.8,286046997.3,N
1562050975.6,286046996.9,N
1562050995.5,286046997.8,N
1562051015.3,286046997.7,N
1562051035.1,286046997.1,N
1562051055.9,286046997.4,N
1562051075.7,286046997.9,N
1562051095.6,286046999.6,N
1562051115.4,286046997.5,N
1562051135.2,286046997.3,N
1562051155.1,286046996.9,N
1562051156.0,286046996.9,N
1562051175.8,286046997.8,N
1562051195.7,286046996.8,N
1562051215.5,286046995.3,Y
1562051235.3,286046997.1,P
1562051255.2,286046997.0,P
1562051275.0,286046997.3,P
1562051275.9,286046997.3,Y
1562051295.8,286047001.2,P
1562051315.6,286046999.3,N
1562051335.4,286046996.6,N
1562051355.3,286046997.0,N
1562051375.1,286046996.7,N
1562051395.9,286046997.1,N
1562051415.7,286046996.9,N
1562051435.5,286046996.8,N
1562051455.4,286046997.4,N
1562051475.2,286046997.9,N
1562051495.0,286046996.8,N
1562051495.9,286046996.8,N
1562051515.8,286046997.2,N
1562051535.6,286046997.7,N
1562051555.5,286046998.0,N
1562051575.3,286046997.5,N
1562051595.1,286046996.5,Y
1562051615.9,286047001.1,P
1562051635.7,286046998.6,N
1562051655.5,286046999.0,N
1562051675.4,286046998.3,N
1562051695.2,286046998.4,N
1562051715.1,286047001.1,N
1562051716.0,286047001.1,N
1562051735.8,286046998.8,N
1562051755.6,286046998.1,N
1562051775.5,286047000.9,N
1562051795.3,286047000.7,N
1562051815.2,286047001.0,N
1562051835.9,286047000.3,N
1562051855.7,286047000.5,N
1562051875.6,286047000.4,N
1562051895.4,286047000.4,N
1562051915.2,286047000.8,N
1562051935.1,286047000.6,N
1562051936.0,286047000.6,N
1562051955.8,286047000.6,N
1562051975.7,286047000.4,N
1562051995.5,286047000.4,N
1562052015.3,286047000.3,N
1562052035.2,286047000.0,N
1562052055.0,286046999.9,N
1562052055.9,286046999.9,N
1562052075.8,286047000.0,N
1562052095.6,286047000.7,N
1562052115.4,286047000.5,N
1562052135.3,286047002.4,N
1562052155.1,286047002.8,N
1562052175.8,286047002.8,N
1562052195.7,286047002.8,N
1562052215.5,286046999.8,N
1562052235.4,286047002.4,N
1562052255.2,286047002.4,N
1562052275.0,286046999.7,N
1562052275.9,286046999.7,N
1562052295.8,286047000.5,N
1562052315.6,286046999.7,N
1562052335.4,286046999.7,N
1562052355.3,286047002.2,N
1562052375.1,286046999.7,N
1562052395.9,286047001.5,N
1562052415.7,286047002.1,N
1562052435.5,286047004.3,Y
1562052455.4,286047002.5,P
1562052475.2,286047001.3,N
1562052495.1,286047004.0,P
1562052496.0,286047004.0,Y
1562052515.8,286047000.6,P
1562052535.6,286046998.1,N
1562052555.5,286047000.9,N
1562052575.5,286047000.4,N
1562052595.4,286047000.2,N
1562052615.2,286047000.7,N
1562052635.0,286046998.2,N
1562052635.9,286046998.2,N
1562052655.8,286047001.2,N
1562052675.6,286047000.9,N
1562052695.5,286047000.6,N
1562052715.3,286047002.6,N
1562052735.1,286047000.0,N
1562052755.9,286047000.0,N
1562052775.7,286047001.0,N
1562052795.5,286047000.1,N
1562052815.4,286047000.4,N
1562052835.2,286047000.5,N
1562052855.1,286046999.9,N
1562052856.0,286046999.9,N
1562052875.8,286047000.1,N
1562052895.6,286046999.8,N
1562052915.5,286047002.8,N
1562052935.3,286047001.7,N
1562052955.2,286047000.4,N
1562052975.9,286047001.0,N
1562052995.7,286046999.7,N
1562053015.6,286047002.7,N
1562053035.4,286046999.8,N
1562053055.2,286047002.2,N
1562053075.1,286047000.8,N
1562053076.0,286047000.8,N
1562053095.8,286046998.4,N
1562053115.7,286047000.4,N
1562053135.5,286047000.0,N
1562053155.3,286047000.3,N
1562053175.2,286046999.9,N
1562053195.0,286047000.0,N
1562053195.9,286047000.0,N
1562053215.7,286047001.8,N
1562053235.6,286047002.4,N
1562053255.4,286047002.7,N
1562053275.3,286046999.9,N
1562053295.1,286047002.3,N
1562053315.9,286047001.5,N
1562053335.7,286047002.3,N
1562053355.5,286047002.1,N
1562053375.4,286047002.6,N
1562053395.2,286046999.7,N
1562053415.0,286047002.7,N
1562053415.9,286047002.7,N
1562053435.8,286047002.2,N
1562053455.6,286047004.0,Y
1562053475.5,286047004.4,P
1562053495.3,286047001.7,N
1562053515.1,286047002.4,N
1562053535.9,286047002.8,N
1562053555.7,286047002.4,N
1562053575.6,286046999.9,N
1562053595.4,286047002.7,N
1562053615.2,286047002.0,N
1562053635.1,286047001.4,N
1562053636.0,286047001.4,N
1562053655.8,286047002.0,N
1562053675.6,286047002.6,N
1562053695.5,286047002.1,N
1562053715.3,286047002.1,N
1562053735.2,286047001.3,N
1562053755.9,286047001.3,N
1562053775.7,286047002.7,N
1562053795.6,286047001.5,N
1562053815.4,286047002.0,N
1562053835.3,286047001.5,N
1562053855.1,286047001.8,N
1562053856.0,286047001.8,N
1562053875.8,286047002.3,N
1562053895.7,286047001.9,N
1562053915.5,286047001.9,N
1562053935.3,286047003.7,Y
1562053955.2,286047000.7,P
1562053975.0,286046998.1,P
1562053975.9,286046998.1,N
1562053995.8,286047001.1,N
1562054015.6,286047000.9,N
1562054035.4,286047001.1,N
1562054055.3,286047001.2,N
1562054075.1,286047000.8,N
1562054095.9,286046998.1,N
1562054115.7,286047000.8,N
1562054135.5,286046998.8,N
1562054155.4,286046999.4,N
1562054175.2,286046999.3,N
1562054195.0,286046999.6,N
1562054195.9,286046999.6,N
1562054215.8,286046997.1,N
1562054235.6,286046996.6,N
1562054255.5,286046999.3,N
1562054275.3,286046999.1,N
1562054295.1,286046999.6,N
1562054315.9,286046997.0,N
1562054335.7,286046997.6,N
1562054355.5,286046997.8,N
1562054375.4,286046997.9,N
1562054395.2,286046995.3,Y
